カタログに戻る

DELTA 1 DEB

運用中UNKNOWN
NORAD 7035·DEBRIS·🇺🇸 United States

打ち上げ Nov 6, 1973 から Vandenberg Space Force Base

Loading…

次のパス (今後24時間)

TLE

最新Source: Space-Track

元期: Sep 13, 2026, 23:10 UTC

1  7035U 73086AB  26256.96588303 -.00000103  00000-0 -85855-3 0  9992
2  7035 101.7837 160.9609 0319219 315.6608  56.0765 11.83664341280858

AllMySatでDELTA 1 DEBをリアルタイム追跡

Download on the App Store